User: anonymous   Login
Location: Asni�res
(49.1337°N, 2.3555°E)
Time: 11:25:12
(UTC+00:00)
Language:

Cosmos 2227 - Orbit

View from above orbital plane
View from above orbital plane
View from above satellite
View from above satellite

Ground track
Ground track

The orbit data is extracted from the following two-line orbital elements,

1 22284U 92093A   22017.90118165 -.00000257  00000-0 -11111-3 0  9998
2 22284  70.9787 322.4458 0018439 168.0562 192.1000 14.13342254499137
Epoch (UTC): 17 January 2022 21:37:42
Eccentricity: 0.0018439
inclination: 70.9787°
perigee height: 834 km
apogee height: 861 km
right ascension of ascending node: 322.4458°
argument of perigee: 168.0562°
revolutions per day: 14.13342254
mean anomaly at epoch: 192.1000°
orbit number at epoch: 49913

The dashed part of the orbit path shows where the satellite is in the earth's shadow,  

DLR